Theta_e
335 321 324 336 331 322 322 319 318 317 316 316 316 316 320 330 330 325 322 320 318 317 317 317 316 315 314 313 312 311 311 311 316
327 317 336 336 321 322 321 320 319 319 317 316 317 317 321 331 332 333 321 318 318 318 318 318 318 317 317 316 315 314 312 311 310
317 314 333 329 321 322 322 321 321 320 320 318 318 318 318 329 330 333 319 318 319 320 321 320 319 320 319 319 318 317 316 315 312
314 316 329 321 322 322 323 322 321 319 319 319 318 318 319 327 324 330 325 319 321 322 322 322 322 322 321 321 320 319 318 317 316
314 317 326 322 323 323 323 322 321 320 319 319 319 318 318 325 319 325 321 321 322 323 323 322 323 323 323 322 321 320 320 319 318
314 319 328 325 324 323 322 321 320 320 319 319 319 319 323 325 325 325 320 322 322 323 323 323 324 325 325 324 323 322 321 320 320
328 317 320 322 324 323 321 319 318 319 319 319 318 320 324 323 323 323 320 322 322 323 324 326 327 327 325 325 324 323 322 321 321
332 319 316 321 322 321 318 318 318 319 325 325 322 325 323 323 323 321 321 322 323 324 326 328 328 326 325 325 324 321 321 321 322
331 318 316 317 317 322 319 321 323 324 323 324 324 324 322 323 324 325 324 323 324 327 329 329 328 326 326 327 324 322 321 321 323
330 330 329 330 327 329 328 327 326 323 324 325 325 325 327 328 328 328 326 325 327 328 328 328 327 326 327 327 326 324 323 320 319
330 330 329 328 328 325 324 324 325 324 325 327 329 329 330 331 331 330 331 329 327 327 326 327 326 326 326 326 326 327 325 322 319
326 327 324 319 320 324 325 324 324 326 328 329 329 329 331 331 331 331 331 331 329 327 327 326 326 325 324 325 327 327 325 324 321
321 325 326 330 330 323 325 322 322 329 330 329 329 330 332 331 332 331 331 330 330 330 329 328 326 326 326 324 325 326 325 323 323
326 326 326 331 332 328 327 328 328 329 328 328 329 331 331 332 331 330 329 329 329 329 328 326 319 321 325 325 325 325 325 324 324
335 330 325 332 332 330 329 329 329 329 328 328 329 331 331 331 330 330 329 329 328 325 325 319 324 327 324 325 324 324 324 324 324
332 331 327 331 333 333 331 330 329 328 328 330 331 331 331 330 330 329 328 325 325 315 315 316 321 328 327 323 323 325 325 324 324
331 332 330 332 333 333 333 331 329 329 329 331 331 331 330 329 328 326 327 324 322 318 314 313 312 318 323 322 320 323 323 324 320
330 330 330 332 332 333 334 333 330 330 331 331 330 329 328 327 326 327 325 322 320 322 318 312 312 313 315 316 322 323 323 321 320
329 330 330 330 331 331 331 331 332 331 331 330 328 329 328 327 326 326 322 317 316 317 318 315 313 312 313 319 322 323 322 320 318
325 329 331 330 330 329 329 329 328 331 330 329 329 327 325 324 323 323 320 319 318 317 317 315 313 312 312 314 317 319 319 318 317
Wind_Speed
18 17 18 19 20 22 20 19 17 16 14 14 14 14 13 14 9 9 9 8 9 9 9 9 9 9 8 7 5 5 4 3 2
18 19 20 19 21 22 21 19 17 15 14 13 12 11 10 9 8 7 5 7 7 8 8 8 8 8 8 8 7 6 5 4 4
20 21 21 20 23 22 20 18 16 14 13 12 10 9 9 7 7 6 4 5 6 7 7 7 8 8 8 8 7 7 6 6 6
21 23 21 23 23 21 19 16 14 12 10 9 8 7 6 7 4 5 2 4 5 5 5 6 7 7 8 8 7 7 7 7 7
22 23 21 22 22 20 18 15 12 11 9 7 6 5 5 3 3 4 1 2 3 4 4 4 5 6 7 7 7 7 7 8 8
23 23 21 21 20 19 16 14 11 9 7 6 5 4 3 2 2 3 2 1 1 2 2 3 4 5 6 6 6 6 7 7 7
16 23 22 20 19 17 15 13 11 8 6 6 5 3 4 3 4 6 3 2 1 1 2 3 4 6 7 6 6 7 7 7 7
21 22 22 21 19 16 14 12 11 9 7 7 4 5 6 3 4 6 5 4 4 3 2 3 5 6 6 5 6 8 8 7 6
18 19 20 18 18 12 12 10 8 10 9 7 6 6 5 4 5 7 6 5 5 4 4 4 6 8 7 7 8 8 8 7 8
17 15 15 14 14 13 12 12 11 10 9 8 8 7 6 5 6 6 7 7 6 6 7 7 8 8 9 8 11 9 7 7 7
20 17 17 15 15 15 13 11 10 10 10 9 8 7 8 7 7 5 8 9 9 8 9 9 10 10 12 12 14 10 9 8 7
17 17 17 16 15 13 13 12 11 10 10 10 10 9 8 8 6 7 6 9 12 11 12 14 13 13 12 12 15 13 11 10 8
17 14 13 13 13 15 15 15 14 13 11 10 10 10 9 9 8 8 8 8 9 12 13 16 15 16 16 14 14 16 12 9 11
17 17 16 13 15 14 14 13 13 13 12 12 11 11 9 9 8 8 8 10 13 11 12 17 15 16 16 14 14 17 15 13 11
19 17 16 13 15 14 14 14 14 13 12 12 12 11 11 10 10 9 9 10 10 9 11 12 10 13 12 14 13 15 13 15 13
18 18 16 16 17 16 16 15 16 16 15 14 14 14 12 12 11 10 9 7 7 10 8 8 8 7 12 12 12 14 14 15 13
17 18 17 17 17 19 18 19 19 19 19 20 12 11 12 11 11 10 7 6 9 7 9 11 13 11 12 15 13 14 15 16 13
15 17 18 22 24 27 26 22 24 23 22 24 12 8 7 11 7 10 6 6 7 6 11 11 12 12 15 14 12 13 14 15 16
15 18 19 20 25 25 26 29 26 25 26 23 22 14 7 6 5 9 10 10 9 9 10 11 14 14 15 13 14 14 15 15 17
20 16 18 20 17 19 22 21 26 27 27 24 24 21 13 7 8 11 13 13 11 11 11 11 12 14 13 15 18 16 16 17 20
Wind_Direction
171 168 158 152 153 149 144 143 138 134 130 128 126 122 115 92 88 81 95 88 83 80 77 76 74 70 68 65 60 50 42 25 322
171 163 152 158 153 149 149 149 143 137 132 131 129 126 115 107 103 97 91 85 80 78 73 70 68 66 61 56 51 47 42 32 23
171 167 156 156 155 154 154 152 149 144 139 133 129 124 117 102 110 107 87 82 77 75 72 67 61 55 47 40 35 33 32 34 38
170 167 160 160 159 159 159 158 155 150 146 141 134 125 116 115 129 102 38 79 82 77 69 62 55 44 36 29 23 23 22 21 21
172 171 165 169 166 165 165 165 164 161 157 150 145 138 129 132 117 129 182 97 90 81 63 50 40 31 24 18 18 20 18 16 12
177 173 173 177 173 172 172 174 173 172 171 171 168 155 117 193 180 214 212 172 102 72 44 24 18 8 3 2 12 18 15 9 5
165 184 185 182 182 183 185 186 186 189 199 203 200 168 222 217 224 244 246 256 267 324 0 2 357 355 352 357 354 349 346 350 356
182 193 185 188 191 194 196 199 200 200 203 223 214 203 210 218 235 247 255 261 274 292 314 343 351 348 345 349 345 341 334 334 343
186 188 188 192 196 196 203 213 214 216 215 218 211 226 227 215 242 267 270 272 277 288 304 324 335 333 331 332 343 343 345 339 331
179 183 189 190 203 200 205 206 216 224 227 221 224 224 225 230 236 237 275 272 273 283 292 299 303 310 308 313 312 315 329 333 336
186 187 193 199 201 207 213 221 217 221 222 226 229 225 228 225 238 241 279 286 278 282 289 289 292 291 296 303 301 293 299 309 322
194 197 203 210 216 212 217 217 220 224 225 223 227 233 231 243 244 241 239 282 296 292 285 286 286 286 287 293 295 289 292 299 312
202 204 210 213 217 224 226 226 227 223 225 230 227 226 228 230 227 240 253 266 271 288 301 295 288 282 281 280 280 284 287 293 305
206 211 213 219 226 230 225 223 222 223 219 221 219 227 226 233 240 239 260 266 271 278 276 288 294 281 274 276 279 278 287 291 296
220 218 221 218 233 226 227 223 223 218 225 225 224 223 229 233 238 240 250 260 268 282 284 294 310 296 280 268 272 269 283 283 289
221 227 228 219 224 235 235 230 223 227 210 221 224 225 233 235 240 243 241 253 275 287 297 304 301 296 290 278 268 269 273 267 273
233 240 229 226 234 231 230 230 223 224 217 211 214 226 229 229 228 219 244 233 265 289 295 290 291 281 274 282 280 270 269 265 276
238 240 249 238 237 240 233 231 226 222 217 215 200 211 220 200 212 232 228 265 270 265 282 292 288 281 279 275 265 259 261 267 283
250 250 253 258 254 255 256 243 248 222 224 219 217 212 218 182 208 228 275 290 275 268 275 286 288 285 278 275 265 257 259 268 281
272 258 251 253 258 267 273 264 254 244 225 217 214 215 220 227 250 277 276 273 297 278 272 270 284 288 276 269 262 258 263 270 275